DW6513 Weather Reports


time (UTC)temp
C
wind
direction
speed
KPH
gust
KPH
rain 1hr
cm
rain 24hr
cm
rain mn
cm
humidity
%
barometer
mb
20260831163304 31 117 4.8 8.0 0.00 0.00 0.00 49 1017.8
20260831162803 31 168 3.2 8.0 0.00 0.00 0.00 50 1017.6
20260831162306 31 280 4.8 11.3 0.00 0.00 0.00 49 1017.6
20260831161804 30 145 4.8 11.3 0.00 0.00 0.00 50 1017.6
20260831161304 30 302 4.8 9.7 0.00 0.00 0.00 50 1017.6
20260831160304 30 80 4.8 8.0 0.00 0.00 0.00 50 1017.6
20260831155805 30 100 3.2 8.0 0.00 0.00 0.00 52 1017.6
20260831155306 30 131 3.2 8.0 0.00 0.00 0.00 51 1017.6
20260831154804 30 78 3.2 4.8 0.00 0.00 0.00 53 1017.7
20260831154303 29 233 4.8 8.0 0.00 0.00 0.00 53 1017.7
20260831153804 29 145 4.8 8.0 0.00 0.00 0.00 53 1017.7
20260831152804 29 212 4.8 3.2 0.00 0.00 0.00 54 1017.4
20260831152306 28 66 4.8 14.5 0.00 0.00 0.00 54 1017.4
20260831151803 28 168 4.8 12.9 0.00 0.00 0.00 54 1017.4
20260831151303 28 145 4.8 12.9 0.00 0.00 0.00 54 1017.4
20260831150804 28 122 3.2 14.5 0.00 0.00 0.00 55 1017.5
20260831150304 28 90 4.8 14.5 0.00 0.00 0.00 55 1017.5
20260831145804 28 122 6.4 11.3 0.00 0.00 0.00 56 1017.5
20260831145306 27 100 4.8 11.3 0.00 0.00 0.00 57 1017.5
20260831144804 27 100 3.2 8.0 0.00 0.00 0.00 57 1017.7
20260831144304 27 21 1.6 8.0 0.00 0.00 0.00 58 1017.7
20260831143803 27 129 1.6 4.8 0.00 0.00 0.00 58 1017.7
20260831143304 27 280 3.2 8.0 0.00 0.00 0.00 58 1017.7
20260831142803 26 132 3.2 8.0 0.00 0.00 0.00 59 1017.8
20260831141804 26 41 3.2 9.7 0.00 0.00 0.00 59 1017.8
20260831141303 26 145 1.6 8.0 0.00 0.00 0.00 60 1017.8
20260831140304 26 163 1.6 11.3 0.00 0.00 0.00 60 1017.5
20260831135804 26 100 1.6 9.7 0.00 0.00 0.00 60 1017.5
20260831135306 25 248 1.6 8.0 0.00 0.00 0.00 61 1017.5
20260831134804 25 122 1.6 8.0 0.00 0.00 0.00 61 1017.5
20260831134304 25 235 1.6 4.8 0.00 0.00 0.00 62 1017.5
20260831133804 25 122 1.6 0.0 0.00 0.00 0.00 63 1017.5
20260831132803 24 280 0.0 4.8 0.00 0.00 0.00 67 1017.2
20260831132306 24 280 0.0 0.0 0.00 0.00 0.00 67 1017.2
20260831131804 24 145 1.6 3.2 0.00 0.00 0.00 67 1017.2
20260831130804 23 122 0.0 0.0 0.00 0.00 0.00 68 1016.9
20260831130304 23 78 0.0 0.0 0.00 0.00 0.00 68 1016.9
20260831125803 23 127 0.0 0.0 0.00 0.00 0.00 68 1016.9
20260831124804 23 275 0.0 0.0 0.00 0.00 0.00 69 1016.9
20260831124303 22 207 0.0 0.0 0.00 0.00 0.00 69 1016.9
20260831123803 22 135 0.0 0.0 0.00 0.00 0.00 69 1016.9
20260831123303 22 206 0.0 0.0 0.00 0.00 0.00 69 1016.9
20260831122804 22 78 0.0 0.0 0.00 0.00 0.00 70 1016.7
20260831122306 22 233 0.0 0.0 0.00 0.00 0.00 70 1016.7
20260831121304 22 145 0.0 0.0 0.00 0.00 0.00 70 1016.7
20260831120803 22 128 0.0 0.0 0.00 0.00 0.00 70 1016.7
20260831120303 22 49 0.0 0.0 0.00 0.00 0.00 70 1016.7
20260831115804 21 178 0.0 0.0 0.00 0.00 0.00 70 1016.7
20260831115306 21 98 0.0 0.0 0.00 0.00 0.00 70 1016.7
20260831114804 21 299 0.0 0.0 0.00 0.00 0.00 70 1016.6
20260831114303 22 252 1.6 0.0 0.00 0.00 0.00 70 1016.6
20260831113804 22 122 1.6 4.8 0.00 0.00 0.00 70 1016.6
20260831113304 22 101 0.0 4.8 0.00 0.00 0.00 70 1016.6
20260831112804 22 145 0.0 0.0 0.00 0.00 0.00 69 1016.6
20260831112306 22 107 0.0 0.0 0.00 0.00 0.00 69 1016.6
20260831111803 22 112 0.0 0.0 0.00 0.00 0.00 69 1016.6
20260831111304 22 104 0.0 0.0 0.00 0.00 0.00 69 1016.6
20260831110804 22 2 0.0 0.0 0.00 0.00 0.00 69 1016.6
20260831105804 22 140 0.0 0.0 0.00 0.00 0.00 69 1016.6
20260831105306 22 171 0.0 0.0 0.00 0.00 0.00 69 1016.6
20260831104803 22 177 0.0 0.0 0.00 0.00 0.00 69 1016.3
20260831103804 22 258 0.0 0.0 0.00 0.00 0.00 69 1016.3
20260831103303 20 163 0.0 3.2 0.00 0.00 0.00 69 1016.3
20260831102804 21 102 0.0 3.2 0.00 0.00 0.00 69 1016.7
20260831102305 21 100 0.0 0.0 0.00 0.00 0.00 68 1016.8
20260831101804 21 153 0.0 0.0 0.00 0.00 0.00 69 1016.8
20260831100804 21 147 0.0 0.0 0.00 0.00 0.00 68 1017.0
20260831095804 21 175 0.0 0.0 0.00 0.00 0.00 68 1017.0
20260831094804 21 141 0.0 0.0 0.00 0.00 0.00 68 1016.8
20260831094303 21 144 0.0 0.0 0.00 0.00 0.00 68 1016.8
20260831093804 21 92 0.0 0.0 0.00 0.00 0.00 67 1016.8
20260831092306 21 280 0.0 0.0 0.00 0.00 0.00 66 1016.7
20260831091804 21 190 0.0 0.0 0.00 0.00 0.00 66 1016.7
20260831091304 21 121 0.0 0.0 0.00 0.00 0.00 66 1016.7
20260831085804 21 78 0.0 0.0 0.00 0.00 0.00 65 1016.4
20260831085306 21 122 0.0 0.0 0.00 0.00 0.00 66 1016.4
20260831084804 21 170 0.0 0.0 0.00 0.00 0.00 65 1016.3
20260831084304 21 122 0.0 0.0 0.00 0.00 0.00 66 1016.3
20260831083804 21 197 0.0 0.0 0.00 0.00 0.00 65 1016.3
20260831083304 21 142 0.0 0.0 0.00 0.00 0.00 65 1016.3
20260831082804 21 172 0.0 0.0 0.00 0.00 0.00 65 1016.4
20260831082306 21 144 0.0 0.0 0.00 0.00 0.00 66 1016.4
20260831080804 21 287 0.0 0.0 0.00 0.00 0.00 66 1016.2
20260831080304 21 301 0.0 0.0 0.00 0.00 0.00 67 1016.2
20260831075803 21 85 0.0 0.0 0.00 0.00 0.00 66 1016.2
20260831075306 21 302 0.0 0.0 0.00 0.00 0.00 67 1016.2
20260831074804 21 31 0.0 0.0 0.00 0.00 0.00 67 1016.3
20260831074304 21 146 0.0 0.0 0.00 0.00 0.00 67 1016.3
20260831073804 21 153 0.0 0.0 0.00 0.00 0.00 67 1016.3
20260831072804 22 220 0.0 0.0 0.00 0.00 0.00 67 1016.3
20260831072306 22 147 0.0 0.0 0.00 0.00 0.00 67 1016.3
20260831071804 21 117 0.0 0.0 0.00 0.00 0.00 68 1016.3
20260831071305 21 144 0.0 0.0 0.00 0.00 0.00 68 1016.3
20260831070804 21 226 0.0 0.0 0.00 0.00 0.00 68 1016.6
20260831070304 21 168 0.0 0.0 0.00 0.00 0.00 68 1016.6
20260831065804 21 147 0.0 0.0 0.00 0.00 0.00 68 1016.6
20260831065306 21 144 0.0 0.0 0.00 0.00 0.00 68 1016.6
20260831064304 21 145 0.0 0.0 0.00 0.00 0.00 68 1016.9
20260831063804 21 153 0.0 0.0 0.00 0.00 0.00 69 1016.9
20260831063303 21 121 0.0 0.0 0.00 0.00 0.00 69 1016.9
20260831062305 21 78 0.0 0.0 0.00 0.00 0.00 70 1016.8
20260831061303 21 100 0.0 0.0 0.00 0.00 0.00 58 1016.8
20260831060804 25 145 0.0 0.0 0.00 0.00 0.00 56 1015.5
20260831060303 25 145 0.0 0.0 0.00 0.00 0.00 56 1015.5
20260831055804 25 145 0.0 0.0 0.00 0.00 0.00 56 1015.5
20260831055306 25 145 0.0 0.0 0.00 0.00 0.00 56 1015.5
20260831054804 25 145 0.0 0.0 0.00 0.00 0.00 56 1015.5
20260831053806 25 145 0.0 0.0 0.00 0.00 0.00 56 1015.5
20260831052803 25 145 0.0 0.0 0.00 0.00 0.00 56 1015.5
20260831052306 25 145 0.0 0.0 0.00 0.00 0.00 56 1015.5
20260831050822 25 145 0.0 0.0 0.00 0.00 0.00 56 1015.5
20260831050303 25 145 0.0 0.0 0.00 0.00 0.00 56 1015.5
20260831045306 25 145 0.0 0.0 0.00 0.00 0.00 56 1015.5
20260831044804 25 145 0.0 0.0 0.00 0.00 0.00 56 1015.5
20260831044304 25 145 0.0 0.0 0.00 0.00 0.00 56 1015.5
20260831043303 25 145 0.0 0.0 0.00 0.00 0.00 56 1015.5
20260831042803 25 145 0.0 0.0 0.00 0.00 0.00 56 1015.5
20260831042306 25 145 0.0 0.0 0.00 0.00 0.00 56 1015.5
20260831041803 25 145 0.0 0.0 0.00 0.00 0.00 56 1015.5
20260831040803 25 145 0.0 0.0 0.00 0.00 0.00 56 1015.5
20260831040302 25 145 0.0 0.0 0.00 0.00 0.00 56 1015.5
20260831035803 25 145 0.0 0.0 0.00 0.00 0.00 56 1015.5
20260831035306 25 145 0.0 0.0 0.00 0.00 0.00 56 1015.5
20260831034803 25 145 0.0 0.0 0.00 0.00 0.00 56 1015.5
20260831034303 25 145 0.0 0.0 0.00 0.00 0.00 56 1015.5
20260831033803 25 145 0.0 0.0 0.00 0.00 0.00 56 1015.5
20260831033303 25 145 0.0 0.0 0.00 0.00 0.00 56 1015.5
20260831032803 25 145 0.0 0.0 0.00 0.00 0.00 56 1015.5
20260831032306 25 145 0.0 0.0 0.00 0.00 0.00 56 1015.5
20260831031803 25 191 0.0 0.0 0.00 0.00 0.00 56 1015.5
20260831031302 25 122 0.0 0.0 0.00 0.00 0.00 55 1015.5
20260831030803 25 220 0.0 0.0 0.00 0.00 0.00 55 1015.7
20260831030303 25 145 0.0 0.0 0.00 0.00 0.00 55 1015.7
20260831025803 25 138 0.0 0.0 0.00 0.00 0.00 55 1015.7
20260831025306 25 302 0.0 0.0 0.00 0.00 0.00 55 1015.7
20260831024804 25 122 0.0 0.0 0.00 0.00 0.00 54 1015.8
20260831024303 25 145 0.0 4.8 0.00 0.00 0.00 54 1015.8
20260831023803 25 100 0.0 4.8 0.00 0.00 0.00 54 1015.8
20260831022803 25 108 0.0 0.0 0.00 0.00 0.00 53 1015.8
20260831022306 26 168 0.0 0.0 0.00 0.00 0.00 53 1015.8
20260831021803 26 258 0.0 0.0 0.00 0.00 0.00 53 1015.8
20260831021303 26 168 0.0 0.0 0.00 0.00 0.00 53 1015.8
20260831020803 26 183 0.0 3.2 0.00 0.00 0.00 53 1015.4
20260831020303 26 145 0.0 3.2 0.00 0.00 0.00 52 1015.4
20260831015803 26 158 0.0 0.0 0.00 0.00 0.00 52 1015.4
20260831015305 26 258 1.6 4.8 0.00 0.00 0.00 51 1015.4
20260831014803 26 227 1.6 8.0 0.00 0.00 0.00 51 1015.2
20260831014303 26 302 0.0 3.2 0.00 0.00 0.00 51 1015.2
20260831013804 26 78 0.0 3.2 0.00 0.00 0.00 50 1015.2
20260831013303 27 235 1.6 3.2 0.00 0.00 0.00 50 1015.2
20260831012804 27 119 1.6 4.8 0.00 0.00 0.00 50 1015.2
20260831011803 27 100 0.0 8.0 0.00 0.00 0.00 50 1015.2
20260831011303 27 168 0.0 8.0 0.00 0.00 0.00 49 1015.2
20260831010803 27 207 0.0 0.0 0.00 0.00 0.00 48 1014.9
20260831010303 27 258 0.0 4.8 0.00 0.00 0.00 48 1014.9
20260831005803 27 187 0.0 4.8 0.00 0.00 0.00 48 1014.9
20260831005306 27 145 1.6 0.0 0.00 0.00 0.00 47 1014.9
20260831004803 28 246 1.6 0.0 0.00 0.00 0.00 47 1014.7
20260831004303 28 55 1.6 9.7 0.00 0.00 0.00 47 1014.7
20260831003304 28 280 1.6 4.8 0.00 0.00 0.00 45 1014.7
20260831002306 28 212 1.6 4.8 0.00 0.00 0.00 44 1014.9
20260831001804 29 213 1.6 8.0 0.00 0.00 0.00 44 1014.9
20260831001304 29 258 1.6 3.2 0.00 0.00 0.00 43 1014.9
20260831000804 30 294 1.6 9.7 0.00 0.00 0.00 43 1014.9
20260830235803 30 176 1.6 12.9 0.00 0.00 0.00 42 1014.9
20260830234803 30 294 3.2 8.0 0.00 0.00 0.00 39 1014.9
20260830233803 31 119 3.2 9.7 0.00 0.00 0.00 35 1014.9
20260830233303 31 55 1.6 9.7 0.00 0.00 0.00 34 1015.5
20260830232803 31 353 3.2 11.3 0.00 0.00 0.00 32 1015.3
20260830232305 31 168 4.8 16.1 0.00 0.00 0.00 31 1015.3
20260830231803 32 130 4.8 9.7 0.00 0.00 0.00 31 1015.3
20260830231303 32 168 6.4 11.3 0.00 0.00 0.00 31 1015.3
20260830230803 33 136 4.8 9.7 0.00 0.00 0.00 28 1015.8
20260830230304 35 10 3.2 9.7 0.00 0.00 0.00 27 1015.8
20260830225305 35 145 3.2 3.2 0.00 0.00 0.00 27 1015.8
20260830224803 35 99 4.8 8.0 0.00 0.00 0.00 27 1015.6
20260830224303 35 145 3.2 9.7 0.00 0.00 0.00 27 1015.6
20260830223803 36 114 1.6 14.5 0.00 0.00 0.00 28 1015.6
20260830223303 35 145 3.2 4.8 0.00 0.00 0.00 29 1015.6
20260830222803 35 100 3.2 8.0 0.00 0.00 0.00 29 1015.6
20260830221304 35 78 1.6 11.3 0.00 0.00 0.00 30 1015.6
20260830220804 35 92 3.2 11.3 0.00 0.00 0.00 29 1015.6
20260830220304 34 100 3.2 9.7 0.00 0.00 0.00 29 1015.6
20260830215803 34 287 1.6 9.7 0.00 0.00 0.00 27 1015.6
20260830214303 35 258 3.2 11.3 0.00 0.00 0.00 26 1015.3
20260830213803 36 230 1.6 8.0 0.00 0.00 0.00 26 1015.3
20260830213304 36 280 1.6 3.2 0.00 0.00 0.00 25 1015.3
20260830211803 36 195 3.2 4.8 0.00 0.00 0.00 24 1015.6
20260830211303 36 280 3.2 9.7 0.00 0.00 0.00 24 1015.6
20260830210804 36 100 3.2 9.7 0.00 0.00 0.00 25 1015.6
20260830210303 36 190 1.6 8.0 0.00 0.00 0.00 24 1015.6
20260830205803 36 258 1.6 8.0 0.00 0.00 0.00 24 1015.6
20260830205305 36 145 3.2 8.0 0.00 0.00 0.00 25 1015.6
20260830204803 36 128 3.2 8.0 0.00 0.00 0.00 25 1016.0
20260830204303 36 168 3.2 8.0 0.00 0.00 0.00 25 1016.0
20260830203803 36 108 3.2 14.5 0.00 0.00 0.00 26 1016.0
20260830202803 36 87 1.6 8.0 0.00 0.00 0.00 27 1016.3
20260830202305 36 145 3.2 4.8 0.00 0.00 0.00 26 1016.3
20260830201803 36 198 3.2 20.9 0.00 0.00 0.00 26 1016.3
20260830201303 36 168 1.6 8.0 0.00 0.00 0.00 27 1016.3
20260830200804 37 189 3.2 9.7 0.00 0.00 0.00 26 1016.3
20260830200304 36 78 4.8 8.0 0.00 0.00 0.00 28 1016.3
20260830195803 36 32 3.2 11.3 0.00 0.00 0.00 28 1016.3
20260830195305 37 258 3.2 11.3 0.00 0.00 0.00 26 1015.8
20260830194804 36 106 3.2 4.8 0.00 0.00 0.00 27 1015.8
20260830194303 37 212 3.2 4.8 0.00 0.00 0.00 28 1015.8
20260830193803 37 122 3.2 11.3 0.00 0.00 0.00 29 1015.8
20260830193303 37 100 3.2 11.3 0.00 0.00 0.00 28 1015.8
20260830192803 37 228 1.6 11.3 0.00 0.00 0.00 30 1016.4
20260830192305 37 168 3.2 4.8 0.00 0.00 0.00 31 1016.4
20260830191803 37 162 3.2 11.3 0.00 0.00 0.00 30 1016.4
20260830191303 37 145 3.2 4.8 0.00 0.00 0.00 30 1016.4
20260830190803 36 47 3.2 9.7 0.00 0.00 0.00 31 1016.6
20260830190303 36 78 4.8 12.9 0.00 0.00 0.00 31 1016.6
20260830185804 36 168 3.2 11.3 0.00 0.00 0.00 31 1016.6
20260830185306 36 55 1.6 3.2 0.00 0.00 0.00 32 1016.6
20260830184803 36 243 1.6 9.7 0.00 0.00 0.00 34 1016.3
20260830184304 36 168 1.6 9.7 0.00 0.00 0.00 35 1016.3
20260830183303 35 78 1.6 4.8 0.00 0.00 0.00 35 1016.3
20260830182804 35 184 1.6 8.0 0.00 0.00 0.00 35 1017.1
20260830182306 35 212 3.2 8.0 0.00 0.00 0.00 39 1017.1
20260830181803 34 230 3.2 8.0 0.00 0.00 0.00 39 1017.1
20260830180803 33 252 8.0 19.3 0.00 0.00 0.00 38 1017.0
20260830180303 33 168 4.8 9.7 0.00 0.00 0.00 40 1017.0
20260830175803 33 105 4.8 16.1 0.00 0.00 0.00 36 1017.0
20260830175305 32 100 4.8 9.7 0.00 0.00 0.00 39 1017.0
20260830174804 32 86 4.8 14.5 0.00 0.00 0.00 37 1017.1
20260830174303 32 348 4.8 16.1 0.00 0.00 0.00 37 1017.1
20260830173303 32 212 4.8 8.0 0.00 0.00 0.00 40 1017.1
20260830172804 32 62 8.0 16.1 0.00 0.00 0.00 38 1017.5
20260830172306 32 348 8.0 14.5 0.00 0.00 0.00 39 1017.5
20260830171803 31 108 8.0 11.3 0.00 0.00 0.00 40 1017.5
20260830170803 31 115 8.0 12.9 0.00 0.00 0.00 41 1017.6
20260830165803 31 138 3.2 11.3 0.00 0.00 0.00 44 1017.6
20260830165306 31 145 3.2 8.0 0.00 0.00 0.00 44 1017.6
20260830164804 31 300 3.2 4.8 0.00 0.00 0.00 45 1017.8
20260830164304 30 55 4.8 8.0 0.00 0.00 0.00 45 1017.8
20260830163803 30 65 4.8 9.7 0.00 0.00 0.00 46 1017.8